Location: Unspecified
(47.0480°N, 0.0000°E)
Time: 04:31:02
(UTC+00:00)

Cosmos 2360 Rocket - Visible Passes

Search period start: 04 April 2026 00:00
Search period end: 14 April 2026 00:00
Orbit: 832 x 844 km, 71.0° (Epoch: 29 March)

Date Brightness Start Highest point End Pass type
(mag) Time Alt. Az. Time Alt. Az. Time Alt. Az.
4 Apr 5.1 03:54:16 10° N 03:57:02 14° NE 03:59:48 10° ENE visible
4 Apr 2.1 20:30:17 10° S 20:35:47 61° ESE 20:41:22 10° NNE visible
4 Apr 4.1 22:15:27 10° WSW 22:20:11 27° NW 22:24:57 10° N visible
5 Apr 5.1 03:38:17 10° N 03:40:50 13° NE 03:43:22 10° ENE visible
5 Apr 2.2 20:14:13 10° S 20:19:41 57° ESE 20:25:13 10° NE visible
5 Apr 4.0 21:59:12 10° WSW 22:04:01 28° NW 22:08:52 10° N visible
6 Apr 5.2 03:22:19 10° N 03:24:37 12° NNE 03:26:55 10° ENE visible
6 Apr 2.3 19:58:10 10° S 20:03:35 53° ESE 20:09:04 10° NE visible
6 Apr 4.0 21:42:57 10° WSW 21:47:51 30° NW 21:52:48 10° NNE visible
7 Apr 5.3 03:06:22 10° N 03:08:24 12° NNE 03:10:27 10° NE visible
7 Apr 3.5 04:48:30 10° NNW 04:53:56 45° NE 04:59:21 10° SE visible
7 Apr 2.3 19:42:06 10° S 19:47:29 49° ESE 19:52:55 10° NE visible
7 Apr 3.9 21:26:42 10° WSW 21:31:41 31° NW 21:36:43 10° NNE visible
8 Apr 5.4 02:50:27 10° NNE 02:52:12 11° NNE 02:53:56 10° NE visible
8 Apr 3.6 04:32:24 10° NNW 04:37:48 43° NE 04:43:10 10° SE visible
8 Apr 2.4 19:26:03 10° S 19:31:24 46° ESE 19:36:46 10° NE visible
8 Apr 3.9 21:10:28 10° WSW 21:15:31 33° NW 21:20:38 10° NNE visible
9 Apr 5.4 02:34:37 10° NNE 02:35:59 11° NNE 02:37:20 10° NE visible
9 Apr 3.7 04:16:18 10° NNW 04:21:39 40° NE 04:26:57 10° ESE visible
9 Apr 2.5 19:10:02 10° S 19:15:17 43° ESE 19:20:36 10° NE visible
9 Apr 3.8 20:54:14 10° WSW 20:59:22 35° NW 21:04:33 10° NNE visible
10 Apr 5.5 02:18:54 10° NNE 02:19:46 10° NNE 02:20:37 10° NE visible
10 Apr 3.8 04:00:13 10° NNW 04:05:30 38° NE 04:10:45 10° ESE visible
10 Apr 3.7 20:38:02 10° WSW 20:43:13 37° NW 20:48:27 10° NNE visible
10 Apr 5.5 22:28:33 10° NNW 22:28:59 10° NNW 22:29:24 10° NNW visible
11 Apr 3.9 03:44:07 10° NNW 03:49:21 36° NE 03:54:32 10° ESE visible
11 Apr 3.7 20:21:48 10° WSW 20:27:04 39° NW 20:32:22 10° NNE visible
11 Apr 5.5 22:11:37 10° NW 22:12:45 11° NNW 22:13:54 10° NNW visible
12 Apr 4.0 03:28:02 10° NNW 03:33:11 34° NE 03:38:18 10° ESE visible
12 Apr 3.6 20:05:36 10° SW 20:10:54 42° NW 20:16:17 10° NNE visible
12 Apr 5.5 21:55:00 10° NW 21:56:33 11° NNW 21:58:07 10° NNW visible
13 Apr 4.1 03:11:57 10° NNW 03:17:02 32° NE 03:22:05 10° ESE visible
13 Apr 3.5 19:49:24 10° SW 19:54:46 44° NW 20:00:11 10° NNE visible
13 Apr 5.4 21:38:26 10° NW 21:40:20 12° NNW 21:42:15 10° NNW visible
